www.pogodaiklimat.ru
Время
и дата
07:53 30.12
08:07 30.12
08:38 30.12
08:53 30.12
09:28 30.12
09:53 30.12
10:00 30.12
10:22 30.12
10:53 30.12
11:53 30.12
12:53 30.12
13:17 30.12
13:53 30.12
14:53 30.12
15:53 30.12
16:53 30.12
17:53 30.12
18:53 30.12
19:53 30.12
20:53 30.12
21:53 30.12
22:53 30.12
23:53 30.12
00:53 31.12
01:53 31.12
02:53 31.12
03:53 31.12
04:53 31.12
05:53 31.12
06:53 31.12
07:53 31.12
08:53 31.12
09:06 31.12
09:15 31.12
09:26 31.12
09:29 31.12
09:53 31.12
10:09 31.12
10:16 31.12
10:25 31.12
10:37 31.12
10:53 31.12
11:53 31.12
12:53 31.12
13:53 31.12
14:10 31.12
14:37 31.12
14:53 31.12
Ветер
(напр.,м/с)
Видим. Явления Облачность Т
(С)
Тd
(С)
f
(%)
Тe
(С)
Тes
(С)
Комфортность P
(гПа)
Po
(гПа)
Тmin
(С)
Tmax
(С)
R
(мм)
R24
(мм)
S
(см)
штиль 0 4 км слабый снег, дымка 8/8 1080 м -8.3 -10.6 83 -9 -9 1004.2 963.3
З 1 6 км слабый снег, дымка 8/8 1080 м -8.9 -11.1 84 -13 -13 963.6
З 1 8 км слабый снег, дымка 10/8 750 м
[Ac]
-8.9 -11.1 84 -15 -15 963.6
ЮЗ 1 10 км дымка 8/8 690 м
[Ac]
-8.9 -11.1 84 -13 -13 1004.1 963.3
З 1 13 км 8/8 780 м -7.2 -10.6 77 -12 -11 963.3
З 1 16 км 8/8 780 м -6.7 -10.0 77 -12 -12 1004.0 963.3 -10.6 -6.7
З 1 16 км 8/8 720 м
[Ac]
-6.7 -10.6 74 -11 -11 963.3
СЗ 1 3 км слабый снег 10/10 780 м -6.1 -10.0 74 -12 -12 963.3
З 2 6 км слабый снег 10/10 750 м -5.6 -8.9 78 -12 -12 1003.9 963.3
С 3
{4}
16 км 10/10 690 м -4.4 -10.0 65 -12 -12 1003.9 963.3
С 3
{4}
16 км 10/10 810 м -4.4 -10.0 65 -12 -12 1004.7 963.9
С 2 16 км 10/10 900 м -4.4 -10.6 62 -11 -11 964.3
С 2 16 км 10/10 990 м -4.4 -10.6 62 -11 -11 1005.3 964.6
С 2 16 км 5/0 2100 м
[Ac]
-3.9 -11.1 57 -10 -10 1005.7 964.9
СЗ 2 16 км 5/5 1800 м -5.0 -11.1 62 -12 -12 1006.3 965.6 -6.7 -3.3
штиль 0 16 км 10/10 1950 м -5.0 -11.1 62 -6 -6 1006.9 966.2
штиль 0 16 км 10/10 1800 м -5.0 -10.6 65 -6 -6 1007.7 966.9
С 1 16 км 10/5 1650 м
[Ac]
-5.6 -10.6 68 -11 -11 1008.1 967.2
СЗ 1 16 км 10/10 1650 м -6.1 -10.0 74 -10 -10 1008.5 967.5
СЗ 1 16 км 10/10 1800 м -6.1 -10.0 74 -12 -12 1008.7 967.8
З 1 16 км 10/10 1650 м -6.1 -10.0 74 -10 -10 1008.7 967.8 -6.1 -5.0
З 1 16 км 10/10 1320 м -6.7 -10.0 77 -12 -12 1009.3 968.5
СЗ 1 16 км 10/10 1800 м -6.1 -10.0 74 -10 -10 1009.6 968.8
СЗ 1 16 км 10/0 2250 м
[Ac]
-6.7 -9.4 81 -11 -11 1010.1 969.1
штиль 0 14 км слабый снег 10/10 1950 м -6.1 -9.4 77 -7 -7 1010.6 969.8
З 1 16 км 10/10 1140 м -6.1 -9.4 77 -10 -10 1011.2 970.5
З 1 16 км 10/10 1110 м -6.1 -9.4 77 -10 -10 1011.7 970.8 -6.7 -6.1
З 1 16 км 10/0 2100 м
[Ac]
-6.7 -9.4 81 -11 -11 1011.9 971.1
штиль 0 16 км 10/8 1500 м
[Ac]
-7.2 -9.4 84 -8 -8 1012.7 971.8
З 1 16 км 10/10 1170 м -6.7 -9.4 81 -11 -11 1014.0 973.1
З 1 16 км 10/10 1230 м -6.1 -9.4 77 -10 -10 1015.4 974.4
штиль 0 5 км слабый снег, дымка 10/10 1050 м -6.1 -8.3 84 -7 -7 1016.4 975.3
штиль 0 3 км слабый снег, дымка 10/10 420 м -6.1 -8.3 84 -7 -7 975.3
штиль 0 2 км слабый снег, дымка 10/10 450 м -6.1 -8.3 84 -7 -7 975.7
штиль 0 3 км слабый снег, дымка 10/10 450 м -5.6 -7.8 84 -6 -6 976.0
штиль 0 3 км слабый снег 10/10 390 м -5.6 -8.3 81 -6 -6 976.3
штиль 0 4 км слабый снег 10/10 360 м -6.1 -8.9 81 -7 -7 1017.7 976.3 -7.2 -5.6 0.3
Ю 1 3 км слабый снег 10/10 420 м -6.1 -8.9 81 -10 -10 976.3
ЮЗ 1 4 км слабый снег 10/10 420 м -5.6 -8.3 81 -10 -10 976.3
Ю 1 6 км слабый снег 10/10 420 м -5.6 -8.3 81 -10 -10 976.6
З 1 8 км слабый снег 10/10 450 м -5.6 -8.3 81 -10 -10 976.6
штиль 0 13 км слабый снег 10/10 510 м -5.6 -8.9 78 -6 -6 1018.2 977.0
З 1 14 км 10/10 660 м -5.0 -8.9 74 -9 -9 1018.0 976.6
З 1 16 км 10/10 600 м -4.4 -9.4 68 -8 -8 1018.6 977.3
штиль 0 16 км 10/10 690 м -3.9 -10.6 60 -4 -4 1019.1 977.9
16 км 10/10 750 м -3.9 -10.0 63 -5 -5 977.9
Ю 1 16 км 10/10 720 м -3.9 -9.4 66 -9 -9 978.6
В 1 16 км 10/10 750 м -4.4 -11.7 57 -8 -8 1020.0 978.6
Местоположение метеостанции Yakima Air Terminal: широта 46.5642 долгота -120.5336 высота над уровнем моря 333 м.
В архиве по умолчанию представлена погода в Якиме за последние 1-2 суток. Обновление информации о фактической погоде в базе происходит ежечасно! Архивные данные за месяц целиком и за предыдущие месяцы Вы можете получить, выбрав интересующий диапазон дат из раскрывающегося списка и нажав кнопку "Ввод!".
Внимание! Архив погоды МЕТАР в базе сайта по станциям, не включенным в климатический монитор, хранится не более 60 дней. Нет смысла пытаться выбрать более раннюю дату.
*Определитесь, кто Вы:
Внимание! Время в таблицах - местное (без учета летнего времени). Для получения всемирного времени необходимо вычесть поправку, которая равна -8 ч.
Смотрите также архив погоды в соседних городах и на ближайших метеорологических станциях:
Партнеры нашего сайта:      
Пояснения к столбцам:
  • Ветер - указаны скорость ветра в м/с - средняя за 10 мин, порывы в срок и между сроками (в фигурных скобках) и направление, откуда дует ветер: С - северный,
  • СВ - северо-восточный, В - восточный, ЮВ - юго-восточный, Ю - южный, ЮЗ - юго-западный, З - западный, СЗ - северо-западный.
  • Видимость - горизонтальная дальность видимости в метрах или километрах. При видимости от 1 до 10 км при отсутствии осадков обычно наблюдается дымка, при ухудшении видимости до 1 км и менее - туман. В сухую погоду видимость может ухудшаться дымом, пылью или мглою.
  • Явления - указаны атмосферные явления, наблюдавшиеся в срок или в последний час перед сроком; фигурными скобками обозначены явления, наблюдавшиеся между сроками (за 1-3 часа до срока); квадратными скобками обозначены град или гололедные отложения с указанием их диаметра в мм.
  • Облачность - указаны через наклонную черту общая и нижняя облачность в баллах и высота нижней границы облаков в метрах; квадратными скобками обозначены формы облаков: Ci - перистые, Cs - перисто-слоистые, Cc - перисто-кучевые, Ac - высококучевые, As - высокослоистые, Sc - слоисто-кучевые, Ns - слоисто-дождевые, Cu - кучевые, Cb - кучево-дождевые. Подробнее классификацию облаков см. в Атласе облаков (PDF).
  • T - Температура воздуха - температура, измеренная на высоте 2 м над землей.
  • Td - Температура точки росы - температура, при понижении до которой содержащийся в воздухе водяной пар достигнет насыщения.
  • f - Относительная влажность воздуха - влажноcть воздуха, измеренная на высоте 2 м над землей.
  • Te - Эффективная температура - температура, которую ощущает одетый по сезону человек в тени. Характеристика душности погоды. При расчете учитывается влияние влажности воздуха и скорости ветра на теплоощущения человека.
  • Tes - Эффективная температура на солнце - температура, которую ощущает человек, с поправкой на солнечный нагрев. Характеристика знойности погоды. Зависит от высоты солнца над горизонтом, облачности и скорости ветра. Ночью, в пасмурную погоду, а также при ветре 12 м/с и более поправка равна нулю.
  • P - Атмосферное давление - приведенное к уровню моря атмосферное давление.
  • Po - Атмосферное давление - измеренное на уровне метеостанции атмосферное давление.
  • Tmin - Минимальная температура - минимум температуры воздуха на высоте 2 м над землей.
  • Tmax - Максимальная температура - максимум температуры воздуха на высоте 2 м над землей.
  • R - Количество осадков - Количество выпавших осадков за период времени, мм. При наведении курсора мыши на число - период времени, за который выпало указанное количество осадков.
  • R24 - Количество осадков - Количество выпавших осадков за 24 часа, мм.
  • S - Снежный покров - Высота снежного покрова, см. При наведении курсора мыши на число - состояние снежного покрова и степень покрытия местности в баллах.